Weather History for KSLN - November, 2013

Change the Weather History Date:

Saturday, November 2, 2013

  Actual Average Record
Temperature  
Mean Temperature 49 °F 51 °F  
Max Temperature 62 °F 62 °F 82 °F (1914)
Min Temperature 36 °F 40 °F 11 °F (1991)
Degree Days  
Heating Degree Days 16 14  
Month to date heating degree days 29 28  
Since 1 July heating degree days 334 346  
Cooling Degree Days 0 0  
Month to date cooling degree days 0 0  
Year to date cooling degree days 1750 1646  
Moisture  
Dew Point 30 °F    
Average Humidity 51    
Maximum Humidity 76    
Minimum Humidity 25    
Precipitation  
Precipitation 0.00 in 0.05 in 1.65 in (1975)
Month to date precipitation T 0.10  
Year to date precipitation 29.06 29.41  
Sea Level Pressure  
Sea Level Pressure 30.20 in    
Wind  
Wind Speed 8 mph (West)    
Max Wind Speed 15 mph    
Max Gust Speed 39 mph    
Visibility 10 miles    
Events      
T = Trace of Precipitation, MM = Missing Value Source: NWS Daily Summary

Daily Weather History Graph

Daily Weather History Graph

Search for Another Location

Airport or City:

Trip Planner

Search our weather history database for the weather conditions in past years. The results will help you decide how hot, cold, wet, or windy it might be!

Date:

Astronomy

Nov. 02, 2013 Rise Set
Actual Time 7:59 AM CDT 6:28 PM CDT
Civil Twilight 7:31 AM CDT 6:56 PM CDT
Nautical Twilight 6:59 AM CDT 7:27 PM CDT
Astronomical Twilight 6:28 AM CDT 7:58 PM CDT
Moon 6:58 AM CDT (11/2) 6:00 PM CDT (11/2)
Length of Visible Light 11h 25m
Length of Day
10h 29m
Waning Crescent, 1% of the Moon is Illuminated
Nov 2
Waning Crescent
Nov 3
New
Nov 9
First Quarter
Nov 17
Full
Nov 25
Last Quarter

Hourly Weather History & Observations

Time (CDT) Temp. Windchill Dew Point Humidity Pressure Visibility Wind Dir Wind Speed Gust Speed Precip Events Conditions
12:53 AM 42.1 °F 36.6 °F 32.0 °F 67% 30.14 in 10.0 mi West 9.2 mph - N/A   Clear
1:53 AM 41.0 °F 34.3 °F 32.0 °F 70% 30.14 in 10.0 mi WNW 11.5 mph - N/A   Clear
2:53 AM 41.0 °F 34.3 °F 32.0 °F 70% 30.15 in 10.0 mi NW 11.5 mph - N/A   Clear
3:53 AM 39.0 °F 32.8 °F 30.9 °F 73% 30.17 in 10.0 mi WNW 9.2 mph - N/A   Clear
4:53 AM 39.0 °F 32.3 °F 30.9 °F 73% 30.18 in 10.0 mi West 10.4 mph - N/A   Clear
5:53 AM 37.9 °F 30.9 °F 30.0 °F 73% 30.21 in 10.0 mi WNW 10.4 mph - N/A   Clear
6:53 AM 37.0 °F 30.4 °F 28.9 °F 73% 30.24 in 10.0 mi WNW 9.2 mph - N/A   Clear
7:53 AM 36.0 °F 29.0 °F 28.0 °F 73% 30.26 in 10.0 mi West 9.2 mph - N/A   Clear
8:53 AM 39.0 °F 35.7 °F 30.0 °F 70% 30.27 in 10.0 mi NW 4.6 mph - N/A   Clear
9:53 AM 45.0 °F 40.1 °F 30.9 °F 58% 30.30 in 10.0 mi WNW 9.2 mph - N/A   Clear
10:53 AM 48.9 °F - 30.9 °F 50% 30.30 in 10.0 mi NW 11.5 mph - N/A   Clear
11:53 AM 54.0 °F - 32.0 °F 43% 30.30 in 10.0 mi NW 8.1 mph - N/A   Clear
12:53 PM 57.0 °F - 28.9 °F 34% 30.28 in 10.0 mi WNW 10.4 mph - N/A   Clear
1:53 PM 59.0 °F - 28.9 °F 32% 30.25 in 10.0 mi WNW 8.1 mph - N/A   Clear
2:53 PM 61.0 °F - 27.0 °F 27% 30.22 in 10.0 mi Variable 4.6 mph - N/A   Clear
3:53 PM 61.0 °F - 26.1 °F 26% 30.19 in 10.0 mi NW 3.5 mph - N/A   Clear
4:53 PM 60.1 °F - 25.0 °F 26% 30.18 in 10.0 mi Calm Calm - N/A   Clear
5:53 PM 57.0 °F - 28.9 °F 34% 30.17 in 10.0 mi SSE 6.9 mph - N/A   Clear
6:53 PM 50.0 °F - 30.0 °F 46% 30.17 in 10.0 mi SSE 6.9 mph - N/A   Clear
7:53 PM 48.9 °F - 30.0 °F 48% 30.16 in 10.0 mi SSE 8.1 mph - N/A   Clear
8:53 PM 43.0 °F 38.8 °F 32.0 °F 65% 30.16 in 10.0 mi SSE 6.9 mph - N/A   Clear
9:53 PM 45.0 °F 39.7 °F 32.0 °F 60% 30.14 in 10.0 mi SSE 10.4 mph - N/A   Clear
10:53 PM 43.0 °F 37.7 °F 32.0 °F 65% 30.13 in 10.0 mi SSE 9.2 mph - N/A   Clear
11:53 PM 44.1 °F 39.0 °F 32.0 °F 63% 30.11 in 10.0 mi SSE 9.2 mph - N/A   Clear